EW5622 Weather Reports


time (UTC)temp
C
wind
direction
speed
KPH
gust
KPH
rain 1hr
cm
rain 24hr
cm
rain mn
cm
humidity
%
barometer
mb
20260510070003 17 133 0.0 8.0 0.00 0.00 0.00 84 1007.1
20260510065615 17 161 0.0 8.0 0.00 0.00 0.00 84 1007.1
20260510064506 16 185 0.0 4.8 0.00 0.00 0.00 87 1007.1
20260510063605 16 202 3.2 4.8 0.00 0.00 0.00 90 1007.1
20260510062913 15 0 0.0 0.0 0.00 0.00 0.00 92 1007.1
20260510061805 14 180 0.0 3.2 0.00 0.00 0.00 94 1007.1
20260510060903 13 0 0.0 0.0 0.00 0.00 0.00 95 1007.1
20260510060005 13 0 0.0 0.0 0.00 0.00 0.00 95 1007.1
20260510055616 13 0 0.0 0.0 0.00 0.00 0.00 95 1007.1
20260510054503 13 0 0.0 0.0 0.00 0.00 0.00 96 1007.1
20260510053603 13 0 0.0 0.0 0.00 0.00 0.00 96 1007.1
20260510052703 13 0 0.0 0.0 0.00 0.00 0.00 96 1006.1
20260510051803 13 0 0.0 0.0 0.00 0.00 0.00 96 1006.1
20260510050903 13 0 0.0 0.0 0.00 0.00 0.00 96 1007.1
20260510050214 13 0 0.0 0.0 0.00 0.00 0.00 96 1007.1
20260510045614 13 0 0.0 0.0 0.00 0.00 0.00 96 1007.1
20260510044713 13 0 0.0 0.0 0.00 0.00 0.00 95 1007.1
20260510043603 13 0 0.0 0.0 0.00 0.00 0.00 95 1006.1
20260510042703 13 0 0.0 0.0 0.00 0.00 0.00 95 1006.1
20260510041803 13 0 0.0 0.0 0.00 0.00 0.00 95 1006.1
20260510040903 13 0 0.0 0.0 0.00 0.00 0.00 95 1006.1
20260510040005 13 0 0.0 0.0 0.00 0.00 0.00 94 1006.1
20260510035615 13 0 0.0 0.0 0.00 0.00 0.00 94 1007.1
20260510034715 13 0 0.0 0.0 0.00 0.00 0.00 94 1007.1
20260510033603 13 0 0.0 0.0 0.00 0.00 0.00 93 1007.1
20260510032915 13 0 0.0 0.0 0.00 0.00 0.00 93 1007.1
20260510031803 14 0 0.0 0.0 0.00 0.00 0.00 93 1007.1
20260510030903 14 0 0.0 0.0 0.00 0.00 0.00 94 1007.1
20260510030004 14 0 0.0 0.0 0.00 0.00 0.00 94 1007.1
20260510025403 14 0 0.0 0.0 0.00 0.00 0.00 94 1007.1
20260510024503 14 0 0.0 0.0 0.00 0.00 0.00 94 1007.1
20260510023814 14 0 0.0 0.0 0.00 0.00 0.00 94 1007.1
20260510022703 14 0 0.0 0.0 0.00 0.00 0.00 95 1007.1
20260510021805 14 0 0.0 0.0 0.00 0.00 0.00 95 1007.1
20260510020905 14 0 0.0 0.0 0.00 0.00 0.00 95 1007.1
20260510020215 14 0 0.0 0.0 0.00 0.00 0.00 95 1007.1
20260510015403 14 0 0.0 0.0 0.00 0.00 0.00 95 1007.1
20260510014503 14 0 0.0 0.0 0.00 0.00 0.00 95 1007.1
20260510013603 14 0 0.0 0.0 0.00 0.00 0.00 95 1007.1
20260510012703 14 0 0.0 0.0 0.00 0.00 0.00 94 1007.1
20260510011803 14 0 0.0 0.0 0.00 0.00 0.00 94 1007.1
20260510010903 13 0 0.0 0.0 0.00 0.00 0.00 94 1007.1
20260510010213 13 0 0.0 0.0 0.00 0.00 0.00 94 1007.1
20260510005403 13 0 0.0 0.0 0.00 0.00 0.00 94 1007.1
20260510004505 13 0 0.0 0.0 0.00 0.00 0.00 93 1007.1
20260510003603 13 0 0.0 0.0 0.00 0.00 0.00 93 1007.1
20260510002703 14 0 0.0 0.0 0.00 0.00 0.00 93 1007.1
20260510001805 14 0 0.0 0.0 0.00 0.00 0.00 92 1007.1
20260510001113 14 0 0.0 0.0 0.00 0.00 0.00 92 1007.1
20260510000004 14 0 0.0 0.0 0.00 0.00 0.00 92 1007.1
20260509235403 14 0 0.0 0.0 0.00 0.00 0.00 92 1007.1
20260509234504 15 0 0.0 0.0 0.00 0.00 0.00 92 1007.1
20260509233605 15 0 0.0 0.0 0.00 0.00 0.00 91 1007.1
20260509232703 15 0 0.0 0.0 0.00 0.00 0.00 91 1007.1
20260509232015 15 90 0.0 4.8 0.00 0.00 0.00 91 1008.1
20260509230905 15 0 0.0 0.0 0.00 0.00 0.00 91 1008.1
20260509230005 16 0 0.0 0.0 0.00 0.00 0.00 91 1008.1
20260509225403 16 0 0.0 0.0 0.00 0.00 0.00 91 1008.1
20260509224504 16 0 0.0 0.0 0.00 0.00 0.00 90 1008.1
20260509223603 16 90 0.0 4.8 0.00 0.00 0.00 90 1008.1
20260509222705 16 0 0.0 0.0 0.00 0.00 0.00 90 1008.1
20260509221803 16 0 0.0 0.0 0.00 0.00 0.00 90 1008.1
20260509220903 16 90 0.0 6.4 0.00 0.00 0.00 90 1008.1
20260509220004 17 0 0.0 0.0 0.00 0.00 0.00 89 1008.1
20260509215404 17 90 0.0 8.0 0.00 0.00 0.00 90 1008.1
20260509214505 17 90 0.0 8.0 0.00 0.00 0.00 90 1008.1
20260509213603 17 0 0.0 0.0 0.00 0.00 0.00 90 1008.1
20260509212706 17 90 0.0 4.8 0.00 0.00 0.00 90 1008.1
20260509211803 17 71 0.0 6.4 0.00 0.00 0.00 91 1008.1
20260509210903 17 0 0.0 0.0 0.00 0.00 0.00 91 1008.1
20260509210003 17 0 0.0 0.0 0.00 0.00 0.00 91 1008.1
20260509205404 17 0 0.0 0.0 0.00 0.00 0.00 90 1008.1
20260509204503 17 0 0.0 0.0 0.00 0.00 0.00 90 1008.1
20260509203603 17 0 0.0 0.0 0.00 0.00 0.00 89 1008.1
20260509202703 17 0 0.0 0.0 0.00 0.00 0.00 88 1008.1
20260509201805 17 0 0.0 0.0 0.00 0.00 0.00 86 1008.1
20260509200903 17 0 0.0 0.0 0.00 0.00 0.00 85 1008.1
20260509200215 18 0 0.0 0.0 0.00 0.00 0.00 84 1008.1
20260509195614 18 0 0.0 0.0 0.00 0.00 0.00 83 1008.1
20260509194505 18 0 0.0 0.0 0.00 0.00 0.00 82 1008.1
20260509193603 18 0 0.0 0.0 0.00 0.00 0.00 81 1008.1
20260509192705 18 0 0.0 0.0 0.00 0.00 0.00 81 1008.1
20260509191803 18 0 0.0 0.0 0.00 0.00 0.00 80 1008.1
20260509190904 19 0 0.0 0.0 0.00 0.00 0.00 79 1007.1
20260509190006 19 0 0.0 0.0 0.00 0.00 0.00 79 1007.1
20260509185403 19 0 0.0 0.0 0.00 0.00 0.00 78 1008.1
20260509184503 20 0 0.0 0.0 0.00 0.00 0.00 78 1008.1
20260509183815 20 0 0.0 0.0 0.00 0.00 0.00 78 1007.1
20260509182914 20 0 0.0 0.0 0.00 0.00 0.00 77 1007.1
20260509181803 20 0 0.0 0.0 0.00 0.00 0.00 76 1007.1
20260509180903 20 0 0.0 0.0 0.00 0.00 0.00 76 1007.1
20260509180003 21 0 0.0 0.0 0.00 0.00 0.00 75 1007.1
20260509175403 21 0 0.0 0.0 0.00 0.00 0.00 75 1007.1
20260509174713 21 0 0.0 0.0 0.00 0.00 0.00 75 1007.1
20260509173814 21 0 0.0 0.0 0.00 0.00 0.00 75 1007.1
20260509172705 21 0 0.0 0.0 0.00 0.00 0.00 75 1007.1
20260509171804 21 0 0.0 0.0 0.00 0.00 0.00 75 1007.1
20260509170903 21 0 0.0 0.0 0.00 0.00 0.00 75 1007.1
20260509170004 21 337 0.0 1.6 0.00 0.00 0.00 74 1007.1
20260509165403 21 0 0.0 0.0 0.00 0.00 0.00 74 1007.1
20260509164505 21 0 0.0 0.0 0.00 0.00 0.00 74 1007.1
20260509163605 21 0 0.0 0.0 0.00 0.00 0.00 73 1007.1
20260509162704 22 22 0.0 4.8 0.00 0.00 0.00 72 1007.1
20260509161805 22 0 0.0 0.0 0.00 0.00 0.00 71 1007.1
20260509160903 22 0 0.0 0.0 0.00 0.00 0.00 71 1007.1
20260509160003 23 0 0.0 0.0 0.00 0.00 0.00 70 1007.1
20260509155403 23 0 0.0 0.0 0.00 0.00 0.00 70 1007.1
20260509154714 23 0 0.0 0.0 0.00 0.00 0.00 69 1007.1
20260509153814 23 315 0.0 4.8 0.00 0.00 0.00 70 1007.1
20260509152913 23 0 0.0 0.0 0.00 0.00 0.00 70 1007.1
20260509151803 23 0 0.0 0.0 0.00 0.00 0.00 72 1007.1
20260509150903 23 202 0.0 1.6 0.00 0.00 0.00 72 1007.1
20260509150005 23 252 0.0 3.2 0.00 0.00 0.00 72 1007.1
20260509145403 22 225 3.2 3.2 0.00 0.00 0.00 74 1007.1
20260509144503 22 274 0.0 4.8 0.00 0.00 0.00 75 1007.1
20260509143603 22 282 4.8 4.8 0.00 0.00 0.00 75 1007.1
20260509142705 22 274 0.0 3.2 0.00 0.00 0.00 74 1007.1
20260509141805 22 225 0.0 6.4 0.00 0.00 0.00 73 1007.1
20260509140903 22 0 0.0 0.0 0.00 0.00 0.00 73 1007.1
20260509140004 22 0 0.0 0.0 0.00 0.00 0.00 73 1007.1
20260509135614 22 0 0.0 0.0 0.00 0.00 0.00 73 1007.1
20260509134503 23 0 0.0 0.0 0.00 0.00 0.00 73 1007.1
20260509133603 23 0 0.0 0.0 0.00 0.00 0.00 73 1008.1
20260509132703 23 0 0.0 0.0 0.00 0.00 0.00 73 1008.1
20260509131805 23 0 0.0 0.0 0.00 0.00 0.00 74 1008.1
20260509130905 23 0 0.0 0.0 0.00 0.00 0.00 74 1008.1
20260509130003 23 0 0.0 0.0 0.00 0.00 0.00 75 1008.1
20260509125616 23 0 0.0 0.0 0.00 0.00 0.00 74 1008.1
20260509124504 22 90 0.0 1.6 0.00 0.00 0.00 74 1008.1
20260509123605 23 0 0.0 0.0 0.00 0.00 0.00 74 1008.1
20260509122703 23 0 0.0 0.0 0.00 0.00 0.00 74 1008.1
20260509121803 22 0 0.0 0.0 0.00 0.00 0.00 76 1008.1
20260509120903 22 0 0.0 0.0 0.00 0.00 0.00 75 1008.1
20260509120216 22 0 0.0 0.0 0.00 0.00 0.00 76 1008.1
20260509115403 22 0 0.0 0.0 0.00 0.00 0.00 77 1008.1
20260509114504 22 0 0.0 0.0 0.00 0.00 0.00 77 1008.1
20260509113605 22 0 0.0 0.0 0.00 0.00 0.00 78 1008.1
20260509112705 22 0 0.0 0.0 0.00 0.00 0.00 77 1008.1
20260509111803 22 0 0.0 0.0 0.00 0.00 0.00 77 1008.1
20260509110903 22 0 0.0 0.0 0.00 0.00 0.00 79 1008.1
20260509110215 22 67 0.0 1.6 0.00 0.00 0.00 79 1008.1
20260509105403 21 90 0.0 1.6 0.00 0.00 0.00 79 1008.1
20260509104505 21 90 0.0 1.6 0.00 0.00 0.00 79 1008.1
20260509103603 22 0 0.0 0.0 0.00 0.00 0.00 80 1008.1
20260509102703 22 0 0.0 0.0 0.00 0.00 0.00 80 1008.1
20260509101803 22 0 0.0 0.0 0.00 0.00 0.00 82 1008.1
20260509100903 22 90 0.0 4.8 0.00 0.00 0.00 82 1008.1
20260509100004 21 90 0.0 4.8 0.00 0.00 0.00 83 1008.1
20260509095404 21 0 0.0 0.0 0.00 0.00 0.00 83 1008.1
20260509094505 21 0 0.0 0.0 0.00 0.00 0.00 85 1008.1
20260509093603 20 0 0.0 0.0 0.00 0.00 0.00 86 1008.1
20260509092703 20 90 0.0 3.2 0.00 0.00 0.00 87 1008.1
20260509091803 20 0 0.0 0.0 0.00 0.00 0.00 89 1008.1
20260509090903 19 90 0.0 1.6 0.00 0.00 0.00 90 1008.1
20260509090213 18 90 0.0 4.8 0.00 0.00 0.00 90 1008.1
20260509085403 18 90 0.0 4.8 0.00 0.00 0.00 92 1009.1
20260509084505 18 0 0.0 0.0 0.00 0.00 0.00 92 1009.1
20260509083605 17 90 0.0 3.2 0.00 0.00 0.00 93 1009.1
20260509082703 17 90 1.6 1.6 0.00 0.00 0.00 94 1009.1
20260509081804 17 0 0.0 0.0 0.00 0.00 0.00 94 1009.1
20260509081113 17 0 0.0 0.0 0.00 0.00 0.00 95 1009.1
20260509080003 17 113 0.0 6.4 0.00 0.00 0.00 97 1009.1
20260509075616 17 116 0.0 6.4 0.00 0.00 0.00 98 1009.1
20260509074505 16 0 0.0 0.0 0.00 0.00 0.00 98 1009.1
20260509073603 15 0 0.0 0.0 0.00 0.00 0.00 98 1009.1
20260509072703 15 0 0.0 0.0 0.00 0.00 0.00 98 1009.1
20260509072013 15 0 0.0 0.0 0.00 0.00 0.00 98 1009.1
20260509070904 14 0 0.0 0.0 0.00 0.00 0.00 98 1009.1